owner,sensor,date,latitude,longitude,vertical_datum,direction_of_sea_water_velocity,sea_water_speed,upward_sea_water_velocity,qcFlag 
TABS,ioos:station:wmo:42047:1,2013-03-01T00:00:00Z,27.8966,-93.5973,2.0,128.8850195,23.4324924,-99999.0,'11111222,11111222,99999999' 
TABS,ioos:station:wmo:42047:1,2013-03-01T00:30:00Z,27.8966,-93.5973,2.0,125.3377058,21.99186213,-99999.0,'11111222,11111222,99999999' 
TABS,ioos:station:wmo:42047:1,2013-03-01T01:00:00Z,27.8966,-93.5973,2.0,138.6325327,21.09294906,-99999.0,'11111222,11111222,99999999' 
TABS,ioos:station:wmo:42047:1,2013-03-01T01:30:00Z,27.8966,-93.5973,2.0,134.3183768,17.83449467,-99999.0,'11111222,11111222,99999999' 
TABS,ioos:station:wmo:42047:1,2013-03-01T02:00:00Z,27.8966,-93.5973,2.0,133.1169458,17.00095586,-99999.0,'11111222,11111222,99999999' 
TABS,ioos:station:wmo:42047:1,2013-03-01T02:30:00Z,27.8966,-93.5973,2.0,155.7395732,14.45669395,-99999.0,'11111222,11111222,99999999' 
TABS,ioos:station:wmo:42047:1,2013-03-01T03:00:00Z,27.8966,-93.5973,2.0,134.3725037,16.14421568,-99999.0,'11111222,11111222,99999999' 
TABS,ioos:station:wmo:42047:1,2013-03-01T03:30:00Z,27.8966,-93.5973,2.0,138.3480079,18.16121692,-99999.0,'11111222,11111222,99999999' 
TABS,ioos:station:wmo:42047:1,2013-03-01T04:00:00Z,27.8966,-93.5973,2.0,138.209881,14.90090601,-99999.0,'11111222,11111222,99999999' 
TABS,ioos:station:wmo:42047:1,2013-03-01T04:30:00Z,27.8966,-93.5973,2.0,148.2009511,12.35435551,-99999.0,'11111222,11111222,99999999' 
TABS,ioos:station:wmo:42047:1,2013-03-01T05:00:00Z,27.8966,-93.5973,2.0,157.8594564,12.86891215,-99999.0,'11111222,11111222,99999999' 
TABS,ioos:station:wmo:42047:1,2013-03-01T05:30:00Z,27.8966,-93.5973,2.0,137.7079905,14.81629171,-99999.0,'11111222,11111222,99999999' 
TABS,ioos:station:wmo:42047:1,2013-03-01T06:00:00Z,27.8966,-93.5973,2.0,153.9318473,13.40349581,-99999.0,'11111222,11111222,99999999' 
TABS,ioos:station:wmo:42047:1,2013-03-01T06:30:00Z,27.8966,-93.5973,2.0,163.0016915,12.48543552,-99999.0,'11111222,11111222,99999999' 
TABS,ioos:station:wmo:42047:1,2013-03-01T07:00:00Z,27.8966,-93.5973,2.0,151.8648837,12.40588973,-99999.0,'11111222,11111222,99999999' 
TABS,ioos:station:wmo:42047:1,2013-03-01T07:30:00Z,27.8966,-93.5973,2.0,141.1351525,13.09993893,-99999.0,'11111222,11111222,99999999' 
TABS,ioos:station:wmo:42047:1,2013-03-01T08:00:00Z,27.8966,-93.5973,2.0,165.2610172,12.26352315,-99999.0,'11111222,11111222,99999999' 
TABS,ioos:station:wmo:42047:1,2013-03-01T08:30:00Z,27.8966,-93.5973,2.0,147.3635565,13.57303577,-99999.0,'11111222,11111222,99999999' 
TABS,ioos:station:wmo:42047:1,2013-03-01T09:00:00Z,27.8966,-93.5973,2.0,153.3319359,12.45491871,-99999.0,'11111222,11111222,99999999' 
TABS,ioos:station:wmo:42047:1,2013-03-01T09:30:00Z,27.8966,-93.5973,2.0,140.8027009,10.49065298,-99999.0,'11111222,11111222,99999999' 
TABS,ioos:station:wmo:42047:1,2013-03-01T10:00:00Z,27.8966,-93.5973,2.0,144.5658928,13.48823561,-99999.0,'11111222,11111222,99999999' 
TABS,ioos:station:wmo:42047:1,2013-03-01T10:30:00Z,27.8966,-93.5973,2.0,127.3852006,14.67459369,-99999.0,'11111222,11111222,99999999' 
TABS,ioos:station:wmo:42047:1,2013-03-01T11:00:00Z,27.8966,-93.5973,2.0,121.7714071,17.39683017,-99999.0,'11111222,11111222,99999999' 
TABS,ioos:station:wmo:42047:1,2013-03-01T11:30:00Z,27.8966,-93.5973,2.0,134.2406697,13.87465315,-99999.0,'11111222,11111222,99999999' 
TABS,ioos:station:wmo:42047:1,2013-03-01T12:00:00Z,27.8966,-93.5973,2.0,124.4309294,15.22779367,-99999.0,'11111222,11111222,99999999' 
TABS,ioos:station:wmo:42047:1,2013-03-01T12:30:00Z,27.8966,-93.5973,2.0,124.1049486,21.06251884,-99999.0,'11111222,11111222,99999999' 
TABS,ioos:station:wmo:42047:1,2013-03-01T13:00:00Z,27.8966,-93.5973,2.0,124.533085,20.35692757,-99999.0,'11111222,11111222,99999999' 
TABS,ioos:station:wmo:42047:1,2013-03-01T13:30:00Z,27.8966,-93.5973,2.0,129.1089642,20.11736066,-99999.0,'11111222,11111222,99999999' 
TABS,ioos:station:wmo:42047:1,2013-03-01T14:00:00Z,27.8966,-93.5973,2.0,125.6870353,24.51322296,-99999.0,'11111222,11111222,99999999' 
TABS,ioos:station:wmo:42047:1,2013-03-01T14:30:00Z,27.8966,-93.5973,2.0,119.9669969,27.50738992,-99999.0,'11111222,11111222,99999999' 
TABS,ioos:station:wmo:42047:1,2013-03-01T15:00:00Z,27.8966,-93.5973,2.0,117.1674355,29.34777845,-99999.0,'11111222,11111222,99999999' 
TABS,ioos:station:wmo:42047:1,2013-03-01T15:30:00Z,27.8966,-93.5973,2.0,120.714363,30.34696196,-99999.0,'11111222,11111222,99999999' 
TABS,ioos:station:wmo:42047:1,2013-03-01T16:00:00Z,27.8966,-93.5973,2.0,113.1037091,30.14799828,-99999.0,'11111222,11111222,99999999' 
TABS,ioos:station:wmo:42047:1,2013-03-01T16:30:00Z,27.8966,-93.5973,2.0,119.4245399,35.94706803,-99999.0,'11111222,11111222,99999999' 
TABS,ioos:station:wmo:42047:1,2013-03-01T17:00:00Z,27.8966,-93.5973,2.0,110.308263,32.21236564,-99999.0,'11111222,11111222,99999999' 
TABS,ioos:station:wmo:42047:1,2013-03-01T17:30:00Z,27.8966,-93.5973,2.0,111.6200438,34.034412,-99999.0,'11111222,11111222,99999999' 
TABS,ioos:station:wmo:42047:1,2013-03-01T18:00:00Z,27.8966,-93.5973,2.0,114.4283341,30.46748431,-99999.0,'11111222,11111222,99999999' 
TABS,ioos:station:wmo:42047:1,2013-03-01T18:30:00Z,27.8966,-93.5973,2.0,115.0541505,29.68294123,-99999.0,'11111222,11111222,99999999' 
TABS,ioos:station:wmo:42047:1,2013-03-01T19:00:00Z,27.8966,-93.5973,2.0,115.3488113,30.34133319,-99999.0,'11111222,11111222,99999999' 
TABS,ioos:station:wmo:42047:1,2013-03-01T19:30:00Z,27.8966,-93.5973,2.0,119.4174248,30.8243751,-99999.0,'11111222,11111222,99999999' 
TABS,ioos:station:wmo:42047:1,2013-03-01T20:00:00Z,27.8966,-93.5973,2.0,119.9446282,27.38579559,-99999.0,'11111222,11111222,99999999' 
TABS,ioos:station:wmo:42047:1,2013-03-01T20:30:00Z,27.8966,-93.5973,2.0,123.9043574,29.65170653,-99999.0,'11111222,11111222,99999999' 
TABS,ioos:station:wmo:42047:1,2013-03-01T21:00:00Z,27.8966,-93.5973,2.0,107.3867112,25.06524486,-99999.0,'11111222,11111222,99999999' 
TABS,ioos:station:wmo:42047:1,2013-03-01T21:30:00Z,27.8966,-93.5973,2.0,116.5182933,27.4365632,-99999.0,'11111222,11111222,99999999' 
TABS,ioos:station:wmo:42047:1,2013-03-01T22:00:00Z,27.8966,-93.5973,2.0,115.4789458,28.31370693,-99999.0,'11111222,11111222,99999999' 
TABS,ioos:station:wmo:42047:1,2013-03-01T22:30:00Z,27.8966,-93.5973,2.0,110.9567208,22.92658064,-99999.0,'11111222,11111222,99999999' 
TABS,ioos:station:wmo:42047:1,2013-03-01T23:00:00Z,27.8966,-93.5973,2.0,128.4333896,26.09371572,-99999.0,'11111222,11111222,99999999' 
TABS,ioos:station:wmo:42047:1,2013-03-01T23:30:00Z,27.8966,-93.5973,2.0,124.9330387,23.90765777,-99999.0,'11111222,11111222,99999999' 
TABS,ioos:station:wmo:42047:1,2013-03-02T00:00:00Z,27.8966,-93.5973,2.0,122.1698574,24.35991174,-99999.0,'11111222,11111222,99999999' 
TABS,ioos:station:wmo:42047:1,2013-03-02T00:30:00Z,27.8966,-93.5973,2.0,126.244338,22.90136459,-99999.0,'11111222,11111222,99999999' 
TABS,ioos:station:wmo:42047:1,2013-03-02T01:00:00Z,27.8966,-93.5973,2.0,137.7301938,19.29763716,-99999.0,'11111222,11111222,99999999' 
TABS,ioos:station:wmo:42047:1,2013-03-02T01:30:00Z,27.8966,-93.5973,2.0,133.9940604,18.93216575,-99999.0,'11111222,11111222,99999999' 
TABS,ioos:station:wmo:42047:1,2013-03-02T02:00:00Z,27.8966,-93.5973,2.0,121.9861588,19.029083,-99999.0,'11111222,11111222,99999999' 
TABS,ioos:station:wmo:42047:1,2013-03-02T02:30:00Z,27.8966,-93.5973,2.0,133.468772,17.99522159,-99999.0,'11111222,11111222,99999999' 
TABS,ioos:station:wmo:42047:1,2013-03-02T03:00:00Z,27.8966,-93.5973,2.0,123.5451431,17.5535438,-99999.0,'11111222,11111222,99999999' 
TABS,ioos:station:wmo:42047:1,2013-03-02T03:30:00Z,27.8966,-93.5973,2.0,133.9639201,15.64375914,-99999.0,'11111222,11111222,99999999' 
TABS,ioos:station:wmo:42047:1,2013-03-02T04:00:00Z,27.8966,-93.5973,2.0,128.4605313,15.27388621,-99999.0,'11111222,11111222,99999999' 
TABS,ioos:station:wmo:42047:1,2013-03-02T04:30:00Z,27.8966,-93.5973,2.0,130.4234872,12.9388794,-99999.0,'11111222,11111222,99999999' 
TABS,ioos:station:wmo:42047:1,2013-03-02T05:00:00Z,27.8966,-93.5973,2.0,135.7439522,12.52391712,-99999.0,'11111222,11111222,99999999' 
TABS,ioos:station:wmo:42047:1,2013-03-02T05:30:00Z,27.8966,-93.5973,2.0,116.0275998,12.39730616,-99999.0,'11111222,11111222,99999999' 
TABS,ioos:station:wmo:42047:1,2013-03-02T06:00:00Z,27.8966,-93.5973,2.0,150.1714768,10.21303089,-99999.0,'11111222,11111222,99999999' 
TABS,ioos:station:wmo:42047:1,2013-03-02T06:30:00Z,27.8966,-93.5973,2.0,142.6640649,8.854292744,-99999.0,'11133222,11111222,99999999' 
TABS,ioos:station:wmo:42047:1,2013-03-02T07:00:00Z,27.8966,-93.5973,2.0,123.8382947,6.428996811,-99999.0,'11133222,11111222,99999999' 
TABS,ioos:station:wmo:42047:1,2013-03-02T07:30:00Z,27.8966,-93.5973,2.0,147.6031798,5.897965751,-99999.0,'11133222,11111222,99999999' 
TABS,ioos:station:wmo:42047:1,2013-03-02T08:00:00Z,27.8966,-93.5973,2.0,164.4373444,7.193733384,-99999.0,'11133222,11111222,99999999' 
TABS,ioos:station:wmo:42047:1,2013-03-02T08:30:00Z,27.8966,-93.5973,2.0,129.5825079,9.212323268,-99999.0,'11133222,11111222,99999999' 
TABS,ioos:station:wmo:42047:1,2013-03-02T09:00:00Z,27.8966,-93.5973,2.0,139.2606391,6.757403347,-99999.0,'11133222,11111222,99999999' 
TABS,ioos:station:wmo:42047:1,2013-03-02T09:30:00Z,27.8966,-93.5973,2.0,109.181734,8.491436863,-99999.0,'11133222,11111222,99999999' 
TABS,ioos:station:wmo:42047:1,2013-03-02T10:00:00Z,27.8966,-93.5973,2.0,104.9776855,7.970796698,-99999.0,'11133222,11111222,99999999' 
TABS,ioos:station:wmo:42047:1,2013-03-02T10:30:00Z,27.8966,-93.5973,2.0,101.8537937,8.47063752,-99999.0,'11133222,11111222,99999999' 
TABS,ioos:station:wmo:42047:1,2013-03-02T11:00:00Z,27.8966,-93.5973,2.0,88.87316565,12.71245846,-99999.0,'11111222,11111222,99999999' 
TABS,ioos:station:wmo:42047:1,2013-03-02T11:30:00Z,27.8966,-93.5973,2.0,116.1208457,8.653843077,-99999.0,'11133222,11111222,99999999' 
TABS,ioos:station:wmo:42047:1,2013-03-02T12:00:00Z,27.8966,-93.5973,2.0,88.09355421,14.12782007,-99999.0,'11111222,11111222,99999999' 
TABS,ioos:station:wmo:42047:1,2013-03-02T12:30:00Z,27.8966,-93.5973,2.0,113.9005883,16.93192251,-99999.0,'11111222,11111222,99999999' 
TABS,ioos:station:wmo:42047:1,2013-03-02T13:00:00Z,27.8966,-93.5973,2.0,117.8639375,23.27897764,-99999.0,'11111222,11111222,99999999' 
TABS,ioos:station:wmo:42047:1,2013-03-02T13:30:00Z,27.8966,-93.5973,2.0,117.2320038,21.89706145,-99999.0,'11111222,11111222,99999999' 
TABS,ioos:station:wmo:42047:1,2013-03-02T14:00:00Z,27.8966,-93.5973,2.0,112.8965095,23.41488843,-99999.0,'11111222,11111222,99999999' 
TABS,ioos:station:wmo:42047:1,2013-03-02T14:30:00Z,27.8966,-93.5973,2.0,127.5014536,20.31923473,-99999.0,'11111222,11111222,99999999' 
TABS,ioos:station:wmo:42047:1,2013-03-02T15:00:00Z,27.8966,-93.5973,2.0,122.5181809,24.27598402,-99999.0,'11111222,11111222,99999999' 
TABS,ioos:station:wmo:42047:1,2013-03-02T15:30:00Z,27.8966,-93.5973,2.0,119.7842987,26.99616639,-99999.0,'11111222,11111222,99999999' 
TABS,ioos:station:wmo:42047:1,2013-03-02T16:00:00Z,27.8966,-93.5973,2.0,106.6250866,28.13617067,-99999.0,'11111222,11111222,99999999' 
TABS,ioos:station:wmo:42047:1,2013-03-02T16:30:00Z,27.8966,-93.5973,2.0,111.4086298,29.25884482,-99999.0,'11111222,11111222,99999999' 
TABS,ioos:station:wmo:42047:1,2013-03-02T17:00:00Z,27.8966,-93.5973,2.0,116.647906,30.90249181,-99999.0,'11111222,11111222,99999999' 
TABS,ioos:station:wmo:42047:1,2013-03-02T17:30:00Z,27.8966,-93.5973,2.0,115.1335506,29.35979053,-99999.0,'11111222,11111222,99999999' 
TABS,ioos:station:wmo:42047:1,2013-03-02T18:00:00Z,27.8966,-93.5973,2.0,116.0621385,24.96889665,-99999.0,'11111222,11111222,99999999' 
TABS,ioos:station:wmo:42047:1,2013-03-02T18:30:00Z,27.8966,-93.5973,2.0,102.4799819,29.29213034,-99999.0,'11111222,11111222,99999999' 
TABS,ioos:station:wmo:42047:1,2013-03-02T19:00:00Z,27.8966,-93.5973,2.0,108.2318152,30.33275787,-99999.0,'11111222,11111222,99999999' 
TABS,ioos:station:wmo:42047:1,2013-03-02T19:30:00Z,27.8966,-93.5973,2.0,102.1546552,33.38847855,-99999.0,'11111222,11111222,99999999' 
TABS,ioos:station:wmo:42047:1,2013-03-02T20:00:00Z,27.8966,-93.5973,2.0,108.9476651,26.85513731,-99999.0,'11111222,11111222,99999999' 
TABS,ioos:station:wmo:42047:1,2013-03-02T20:30:00Z,27.8966,-93.5973,2.0,99.18110861,29.14335945,-99999.0,'11111222,11111222,99999999' 
TABS,ioos:station:wmo:42047:1,2013-03-02T21:00:00Z,27.8966,-93.5973,2.0,100.7380556,23.77634328,-99999.0,'11111222,11111222,99999999' 
TABS,ioos:station:wmo:42047:1,2013-03-02T21:30:00Z,27.8966,-93.5973,2.0,109.5814054,24.49674468,-99999.0,'11111222,11111222,99999999' 
TABS,ioos:station:wmo:42047:1,2013-03-02T22:00:00Z,27.8966,-93.5973,2.0,112.343097,26.12107387,-99999.0,'11111222,11111222,99999999' 
TABS,ioos:station:wmo:42047:1,2013-03-02T22:30:00Z,27.8966,-93.5973,2.0,112.8227555,25.6263146,-99999.0,'11111222,11111222,99999999' 
TABS,ioos:station:wmo:42047:1,2013-03-02T23:00:00Z,27.8966,-93.5973,2.0,118.1047748,28.12647507,-99999.0,'11111222,11111222,99999999' 
TABS,ioos:station:wmo:42047:1,2013-03-02T23:30:00Z,27.8966,-93.5973,2.0,118.9547528,30.67422534,-99999.0,'11111222,11111222,99999999' 
TABS,ioos:station:wmo:42047:1,2013-03-03T00:00:00Z,27.8966,-93.5973,2.0,112.1283922,33.18429749,-99999.0,'11111222,11111222,99999999' 
TABS,ioos:station:wmo:42047:1,2013-03-03T00:30:00Z,27.8966,-93.5973,2.0,111.2798826,34.27706522,-99999.0,'11111222,11111222,99999999' 
TABS,ioos:station:wmo:42047:1,2013-03-03T01:00:00Z,27.8966,-93.5973,2.0,116.5489713,31.99366187,-99999.0,'11111222,11111222,99999999' 
TABS,ioos:station:wmo:42047:1,2013-03-03T01:30:00Z,27.8966,-93.5973,2.0,105.8232603,42.54203686,-99999.0,'11111222,11111222,99999999' 
TABS,ioos:station:wmo:42047:1,2013-03-03T02:00:00Z,27.8966,-93.5973,2.0,112.190237,49.24753801,-99999.0,'11111222,11111222,99999999' 
TABS,ioos:station:wmo:42047:1,2013-03-03T02:30:00Z,27.8966,-93.5973,2.0,111.9694852,50.62633801,-99999.0,'11111222,11111222,99999999' 
TABS,ioos:station:wmo:42047:1,2013-03-03T03:00:00Z,27.8966,-93.5973,2.0,104.6242726,49.15243331,-99999.0,'11111222,11111222,99999999' 
TABS,ioos:station:wmo:42047:1,2013-03-03T03:30:00Z,27.8966,-93.5973,2.0,106.7807083,50.50048416,-99999.0,'11111222,11111222,99999999' 
TABS,ioos:station:wmo:42047:1,2013-03-03T04:00:00Z,27.8966,-93.5973,2.0,107.1417868,48.48373954,-99999.0,'11111222,11111222,99999999' 
TABS,ioos:station:wmo:42047:1,2013-03-03T04:30:00Z,27.8966,-93.5973,2.0,107.1497613,43.84968529,-99999.0,'11111222,11111222,99999999' 
TABS,ioos:station:wmo:42047:1,2013-03-03T05:00:00Z,27.8966,-93.5973,2.0,107.9880788,45.01006665,-99999.0,'11111222,11111222,99999999' 
TABS,ioos:station:wmo:42047:1,2013-03-03T05:30:00Z,27.8966,-93.5973,2.0,101.9703233,44.06826182,-99999.0,'11111222,11111222,99999999' 
TABS,ioos:station:wmo:42047:1,2013-03-03T06:00:00Z,27.8966,-93.5973,2.0,114.3379473,32.22371797,-99999.0,'11111222,11111222,99999999' 
TABS,ioos:station:wmo:42047:1,2013-03-03T06:30:00Z,27.8966,-93.5973,2.0,108.0812334,25.61493705,-99999.0,'11111222,11111222,99999999' 
TABS,ioos:station:wmo:42047:1,2013-03-03T07:00:00Z,27.8966,-93.5973,2.0,116.0446595,22.16034747,-99999.0,'11111222,11111222,99999999' 
TABS,ioos:station:wmo:42047:1,2013-03-03T07:30:00Z,27.8966,-93.5973,2.0,117.556677,22.48032251,-99999.0,'11111222,11111222,99999999' 
TABS,ioos:station:wmo:42047:1,2013-03-03T08:00:00Z,27.8966,-93.5973,2.0,106.3541452,18.2900246,-99999.0,'11111222,11111222,99999999' 
TABS,ioos:station:wmo:42047:1,2013-03-03T08:30:00Z,27.8966,-93.5973,2.0,114.0989484,21.30709976,-99999.0,'11111222,11111222,99999999' 
TABS,ioos:station:wmo:42047:1,2013-03-03T09:00:00Z,27.8966,-93.5973,2.0,112.1184606,20.13153993,-99999.0,'11111222,11111222,99999999' 
TABS,ioos:station:wmo:42047:1,2013-03-03T09:30:00Z,27.8966,-93.5973,2.0,119.2741553,22.04543717,-99999.0,'11111222,11111222,99999999' 
TABS,ioos:station:wmo:42047:1,2013-03-03T10:00:00Z,27.8966,-93.5973,2.0,124.7912418,20.34738804,-99999.0,'11111222,11111222,99999999' 
TABS,ioos:station:wmo:42047:1,2013-03-03T10:30:00Z,27.8966,-93.5973,2.0,123.1307829,22.44978619,-99999.0,'11111222,11111222,99999999' 
TABS,ioos:station:wmo:42047:1,2013-03-03T11:00:00Z,27.8966,-93.5973,2.0,110.4593365,22.20039639,-99999.0,'11111222,11111222,99999999' 
TABS,ioos:station:wmo:42047:1,2013-03-03T11:30:00Z,27.8966,-93.5973,2.0,110.4246167,24.50028775,-99999.0,'11111222,11111222,99999999' 
TABS,ioos:station:wmo:42047:1,2013-03-03T12:00:00Z,27.8966,-93.5973,2.0,110.8942331,30.73085908,-99999.0,'11111222,11111222,99999999' 
TABS,ioos:station:wmo:42047:1,2013-03-03T12:30:00Z,27.8966,-93.5973,2.0,101.9664233,28.06998397,-99999.0,'11111222,11111222,99999999' 
TABS,ioos:station:wmo:42047:1,2013-03-03T13:00:00Z,27.8966,-93.5973,2.0,114.2781916,40.34843863,-99999.0,'11111222,11111222,99999999' 
TABS,ioos:station:wmo:42047:1,2013-03-03T13:30:00Z,27.8966,-93.5973,2.0,115.8657279,54.96664443,-99999.0,'11111222,11111222,99999999' 
TABS,ioos:station:wmo:42047:1,2013-03-03T14:00:00Z,27.8966,-93.5973,2.0,113.6357558,56.09574137,-99999.0,'11111222,11111222,99999999' 
TABS,ioos:station:wmo:42047:1,2013-03-03T14:30:00Z,27.8966,-93.5973,2.0,115.6322682,57.14358057,-99999.0,'11111222,11111222,99999999' 
TABS,ioos:station:wmo:42047:1,2013-03-03T15:00:00Z,27.8966,-93.5973,2.0,115.2658455,56.0189584,-99999.0,'11111222,11111222,99999999' 
TABS,ioos:station:wmo:42047:1,2013-03-03T15:30:00Z,27.8966,-93.5973,2.0,117.2892556,57.6683284,-99999.0,'11111222,11111222,99999999' 
TABS,ioos:station:wmo:42047:1,2013-03-03T16:00:00Z,27.8966,-93.5973,2.0,117.2345678,58.16857227,-99999.0,'11111222,11111222,99999999' 
TABS,ioos:station:wmo:42047:1,2013-03-03T16:30:00Z,27.8966,-93.5973,2.0,115.9059391,57.93140944,-99999.0,'11111222,11111222,99999999' 
TABS,ioos:station:wmo:42047:1,2013-03-03T17:00:00Z,27.8966,-93.5973,2.0,115.3430434,62.07394703,-99999.0,'11111222,11111222,99999999' 
TABS,ioos:station:wmo:42047:1,2013-03-03T17:30:00Z,27.8966,-93.5973,2.0,111.5202434,65.09814129,-99999.0,'11111222,11111222,99999999' 
TABS,ioos:station:wmo:42047:1,2013-03-03T18:00:00Z,27.8966,-93.5973,2.0,110.1809852,61.33555657,-99999.0,'11111222,11111222,99999999' 
TABS,ioos:station:wmo:42047:1,2013-03-03T18:30:00Z,27.8966,-93.5973,2.0,107.3497416,64.45245379,-99999.0,'11111222,11111222,99999999' 
TABS,ioos:station:wmo:42047:1,2013-03-03T19:00:00Z,27.8966,-93.5973,2.0,104.2339638,68.16261805,-99999.0,'11111222,11111222,99999999' 
TABS,ioos:station:wmo:42047:1,2013-03-03T19:30:00Z,27.8966,-93.5973,2.0,102.4413794,66.83960577,-99999.0,'11111222,11111222,99999999' 
TABS,ioos:station:wmo:42047:1,2013-03-03T20:00:00Z,27.8966,-93.5973,2.0,99.52977726,62.81689661,-99999.0,'11111222,11111222,99999999' 
TABS,ioos:station:wmo:42047:1,2013-03-03T20:30:00Z,27.8966,-93.5973,2.0,99.3244177,69.68071254,-99999.0,'11111222,11111222,99999999' 
TABS,ioos:station:wmo:42047:1,2013-03-03T21:00:00Z,27.8966,-93.5973,2.0,97.87635324,64.50856997,-99999.0,'11111222,11111222,99999999' 
TABS,ioos:station:wmo:42047:1,2013-03-03T21:30:00Z,27.8966,-93.5973,2.0,101.3573609,63.93192082,-99999.0,'11111222,11111222,99999999' 
TABS,ioos:station:wmo:42047:1,2013-03-03T22:00:00Z,27.8966,-93.5973,2.0,101.8449583,62.16368071,-99999.0,'11111222,11111222,99999999' 
TABS,ioos:station:wmo:42047:1,2013-03-03T22:30:00Z,27.8966,-93.5973,2.0,102.2691663,60.56326692,-99999.0,'11111222,11111222,99999999' 
TABS,ioos:station:wmo:42047:1,2013-03-03T23:00:00Z,27.8966,-93.5973,2.0,100.9781177,60.28318837,-99999.0,'11111222,11111222,99999999' 
TABS,ioos:station:wmo:42047:1,2013-03-03T23:30:00Z,27.8966,-93.5973,2.0,102.7615242,57.67469202,-99999.0,'11111222,11111222,99999999' 
TABS,ioos:station:wmo:42047:1,2013-03-04T00:00:00Z,27.8966,-93.5973,2.0,102.8912983,55.71428004,-99999.0,'11111222,11111222,99999999' 
TABS,ioos:station:wmo:42047:1,2013-03-04T00:30:00Z,27.8966,-93.5973,2.0,103.8948524,55.05090372,-99999.0,'11111222,11111222,99999999' 
TABS,ioos:station:wmo:42047:1,2013-03-04T01:00:00Z,27.8966,-93.5973,2.0,103.6663031,54.47221126,-99999.0,'11111222,11111222,99999999' 
TABS,ioos:station:wmo:42047:1,2013-03-04T01:30:00Z,27.8966,-93.5973,2.0,106.536729,53.36742171,-99999.0,'11111222,11111222,99999999' 
TABS,ioos:station:wmo:42047:1,2013-03-04T02:00:00Z,27.8966,-93.5973,2.0,106.9622134,50.07855928,-99999.0,'11111222,11111222,99999999' 
TABS,ioos:station:wmo:42047:1,2013-03-04T02:30:00Z,27.8966,-93.5973,2.0,111.3607698,47.33142719,-99999.0,'11111222,11111222,99999999' 
TABS,ioos:station:wmo:42047:1,2013-03-04T03:00:00Z,27.8966,-93.5973,2.0,111.6975413,46.11751294,-99999.0,'11111222,11111222,99999999' 
TABS,ioos:station:wmo:42047:1,2013-03-04T03:30:00Z,27.8966,-93.5973,2.0,128.4930152,44.55187763,-99999.0,'11111222,11111222,99999999' 
TABS,ioos:station:wmo:42047:1,2013-03-04T04:00:00Z,27.8966,-93.5973,2.0,140.9903547,41.19472054,-99999.0,'11111222,11111222,99999999' 
TABS,ioos:station:wmo:42047:1,2013-03-04T04:30:00Z,27.8966,-93.5973,2.0,133.9775827,40.42465832,-99999.0,'11111222,11111222,99999999' 
TABS,ioos:station:wmo:42047:1,2013-03-04T05:00:00Z,27.8966,-93.5973,2.0,134.3691026,37.25264286,-99999.0,'11111222,11111222,99999999' 
TABS,ioos:station:wmo:42047:1,2013-03-04T05:30:00Z,27.8966,-93.5973,2.0,133.2339218,36.48282473,-99999.0,'11111222,11111222,99999999' 
TABS,ioos:station:wmo:42047:1,2013-03-04T06:00:00Z,27.8966,-93.5973,2.0,131.4890554,29.32926525,-99999.0,'11111222,11111222,99999999' 
TABS,ioos:station:wmo:42047:1,2013-03-04T06:30:00Z,27.8966,-93.5973,2.0,125.8899519,32.51275442,-99999.0,'11111222,11111222,99999999' 
TABS,ioos:station:wmo:42047:1,2013-03-04T07:00:00Z,27.8966,-93.5973,2.0,128.3958319,33.56990617,-99999.0,'11111222,11111222,99999999' 
TABS,ioos:station:wmo:42047:1,2013-03-04T07:30:00Z,27.8966,-93.5973,2.0,116.1357216,30.44268385,-99999.0,'11111222,11111222,99999999' 
TABS,ioos:station:wmo:42047:1,2013-03-04T08:00:00Z,27.8966,-93.5973,2.0,117.8602587,32.24786815,-99999.0,'11111222,11111222,99999999' 
TABS,ioos:station:wmo:42047:1,2013-03-04T08:30:00Z,27.8966,-93.5973,2.0,113.6802096,30.3013432,-99999.0,'11111222,11111222,99999999' 
TABS,ioos:station:wmo:42047:1,2013-03-04T09:00:00Z,27.8966,-93.5973,2.0,103.8877646,29.95567559,-99999.0,'11111222,11111222,99999999' 
TABS,ioos:station:wmo:42047:1,2013-03-04T09:30:00Z,27.8966,-93.5973,2.0,96.76779653,29.44517787,-99999.0,'11111222,11111222,99999999' 
TABS,ioos:station:wmo:42047:1,2013-03-04T10:00:00Z,27.8966,-93.5973,2.0,94.10976335,30.41821823,-99999.0,'11111222,11111222,99999999' 
TABS,ioos:station:wmo:42047:1,2013-03-04T10:30:00Z,27.8966,-93.5973,2.0,90.50318928,33.02127345,-99999.0,'11111222,11111222,99999999' 
TABS,ioos:station:wmo:42047:1,2013-03-04T11:00:00Z,27.8966,-93.5973,2.0,89.59727974,36.99091375,-99999.0,'11111222,11111222,99999999' 
TABS,ioos:station:wmo:42047:1,2013-03-04T11:30:00Z,27.8966,-93.5973,2.0,75.39463197,32.71724469,-99999.0,'11111222,11111222,99999999' 
TABS,ioos:station:wmo:42047:1,2013-03-04T12:00:00Z,27.8966,-93.5973,2.0,79.16646403,33.73117994,-99999.0,'11111222,11111222,99999999' 
TABS,ioos:station:wmo:42047:1,2013-03-04T12:30:00Z,27.8966,-93.5973,2.0,71.65502367,34.25067153,-99999.0,'11111222,11111222,99999999' 
TABS,ioos:station:wmo:42047:1,2013-03-04T13:00:00Z,27.8966,-93.5973,2.0,78.37775771,39.21400388,-99999.0,'11111222,11111222,99999999' 
TABS,ioos:station:wmo:42047:1,2013-03-04T13:30:00Z,27.8966,-93.5973,2.0,73.86368554,36.26888474,-99999.0,'11111222,11111222,99999999' 
TABS,ioos:station:wmo:42047:1,2013-03-04T14:00:00Z,27.8966,-93.5973,2.0,71.13275051,40.23164178,-99999.0,'11111222,11111222,99999999' 
TABS,ioos:station:wmo:42047:1,2013-03-04T14:30:00Z,27.8966,-93.5973,2.0,69.01864984,43.98644564,-99999.0,'11111222,11111222,99999999' 
TABS,ioos:station:wmo:42047:1,2013-03-04T15:00:00Z,27.8966,-93.5973,2.0,70.66546309,41.89269387,-99999.0,'11111222,11111222,99999999' 
TABS,ioos:station:wmo:42047:1,2013-03-04T15:30:00Z,27.8966,-93.5973,2.0,70.16747827,40.32154883,-99999.0,'11111222,11111222,99999999' 